Volver al catálogo

QIANFAN-212

ActivoComunicacionesPO
NORAD 69811·PAYLOAD·🇨🇳 China

Lanzado Jul 4, 2026 desde Taiyuan Satellite Launch Center

Loading…

Próximos Pases (próximas 24 horas)

TLE

ActualizadoSource: Space-Track

Época: Sep 14, 2026, 21:06 UTC

1 69811U 26153M   26257.87922590 -.01846443  00000-0 -12188+1 0  9998
2 69811  88.9974 352.0640 0012418 356.3893   3.7197 14.05409306 10274

Sigue QIANFAN-212 en tiempo real con AllMySat

Download on the App Store